TimeEST,TemperatureF,Dew PointF,Humidity,Sea Level PressureIn,VisibilityMPH,Wind Direction,Wind SpeedMPH,Gust SpeedMPH,PrecipitationIn,Events,Conditions,WindDirDegrees,DateUTC
12:52 AM,66.0,59.0,78,30.16,10.0,South,10.4,18.4,N/A,,Mostly Cloudy,170,2012-11-13 05:52:00
1:52 AM,64.9,59.0,81,30.15,10.0,South,6.9,-,N/A,,Mostly Cloudy,170,2012-11-13 06:52:00
2:52 AM,64.0,57.9,80,30.16,10.0,South,5.8,-,N/A,,Mostly Cloudy,190,2012-11-13 07:52:00
3:20 AM,55.4,51.8,88,30.19,10.0,North,9.2,-,N/A,,Overcast,360,2012-11-13 08:20:00
3:52 AM,52.0,46.0,80,30.23,10.0,NW,24.2,28.8,N/A,,Overcast,320,2012-11-13 08:52:00
4:21 AM,50.0,46.4,87,30.24,8.0,NW,17.3,21.9,0.02,Rain,Rain,320,2012-11-13 09:21:00
4:52 AM,50.0,43.0,77,30.24,10.0,NW,18.4,28.8,0.03,Rain,Light Rain,310,2012-11-13 09:52:00
5:13 AM,50.0,44.6,82,30.26,10.0,NW,15.0,-,0.00,Rain,Light Rain,320,2012-11-13 10:13:00
5:43 AM,48.2,44.6,87,30.27,10.0,NNW,12.7,-,0.00,,Overcast,330,2012-11-13 10:43:00
5:52 AM,48.9,44.1,83,30.27,10.0,NNW,13.8,-,0.00,,Overcast,330,2012-11-13 10:52:00
6:52 AM,48.9,43.0,80,30.31,10.0,NW,18.4,24.2,0.00,,Light Drizzle,320,2012-11-13 11:52:00
7:52 AM,46.0,41.0,83,30.33,10.0,NW,18.4,27.6,0.01,,Light Drizzle,320,2012-11-13 12:52:00
8:23 AM,46.4,41.0,81,30.36,10.0,NNW,20.7,27.6,0.00,Rain,Light Rain,330,2012-11-13 13:23:00
8:52 AM,46.0,39.0,76,30.38,10.0,NNW,17.3,24.2,0.02,Rain,Light Rain,330,2012-11-13 13:52:00
9:26 AM,44.6,39.2,81,30.39,2.5,NW,13.8,-,0.00,Rain,Light Rain,320,2012-11-13 14:26:00
9:52 AM,45.0,39.9,82,30.40,4.0,NNW,13.8,-,0.01,Rain,Light Rain,330,2012-11-13 14:52:00
10:52 AM,44.1,39.0,82,30.40,4.0,NNW,12.7,23.0,0.03,Rain,Light Rain,340,2012-11-13 15:52:00
10:56 AM,44.6,39.2,81,30.39,5.0,NNW,13.8,23.0,0.00,Rain,Light Rain,330,2012-11-13 15:56:00
11:52 AM,44.1,37.9,79,30.37,10.0,NNW,11.5,-,0.01,,Overcast,330,2012-11-13 16:52:00
12:52 PM,46.0,36.0,68,30.36,10.0,NW,15.0,-,N/A,,Overcast,320,2012-11-13 17:52:00
1:52 PM,46.0,36.0,68,30.35,10.0,NNW,13.8,-,N/A,,Mostly Cloudy,340,2012-11-13 18:52:00
2:52 PM,46.9,37.0,68,30.34,10.0,NW,10.4,-,N/A,,Mostly Cloudy,320,2012-11-13 19:52:00
3:52 PM,46.9,35.1,63,30.36,10.0,NNW,11.5,-,N/A,,Mostly Cloudy,330,2012-11-13 20:52:00
4:52 PM,46.9,35.1,63,30.37,10.0,NNW,8.1,-,N/A,,Scattered Clouds,340,2012-11-13 21:52:00
5:52 PM,45.0,35.1,68,30.39,10.0,North,8.1,-,N/A,,Scattered Clouds,350,2012-11-13 22:52:00
6:52 PM,45.0,34.0,65,30.41,10.0,NNW,5.8,-,N/A,,Scattered Clouds,340,2012-11-13 23:52:00
7:52 PM,43.0,33.1,68,30.42,10.0,NNW,8.1,-,N/A,,Clear,340,2012-11-14 00:52:00
8:52 PM,44.1,30.9,60,30.43,10.0,NW,13.8,-,N/A,,Clear,310,2012-11-14 01:52:00
9:52 PM,42.1,30.0,62,30.44,10.0,NW,11.5,-,N/A,,Clear,310,2012-11-14 02:52:00
10:52 PM,42.1,28.9,60,30.45,10.0,NW,12.7,-,N/A,,Clear,310,2012-11-14 03:52:00
11:52 PM,41.0,28.9,62,30.46,10.0,NW,12.7,-,N/A,,Clear,310,2012-11-14 04:52:00